Hourly Weather Roundup
Issued by NWS Central Illinois

Home | Current Version | Previous Version | Text Only | Print | Product List | Glossary On
Versions: 1 2 3 4 5 6 7 8 9 10 11 12 13 14 15 16 17 18 19 20 21 22 23 24 25 26 27 28 29 30 31 32 33 34 35 36 37 38 39 40 41 42 43 44 45 46 47 48 49 50
721
NZUS43 KILX 221710
HWRILX

AREA WEATHER ROUNDUP
NATIONAL WEATHER SERVICE, LINCOLN IL
1200 PM CDT FRI MAY 22 2015


CITY           SKY/WX    TMP DP  RH WIND       PRES   REMARKS
BLOOMINGTON    SUNNY     73  41  31 N6        30.22S
CHAMPAIGN      SUNNY     74  41  30 N9        30.21S
DANVILLE       SUNNY     71  48  45 NE3       30.18S
DECATUR        SUNNY     74  44  34 MISG      30.22R
EFFINGHAM      MOSUNNY   69  46  43 S8        30.26R
FLORA          SUNNY     69  51  51 W8        30.25R
GALESBURG      SUNNY     73  39  28 N7        30.21S
JACKSONVILLE   SUNNY     75  45  34 SW6       30.24R
LACON          SUNNY     72  46  39 SW3       30.20S
LAWRENCEVILLE  SUNNY     70  52  52 S9        30.24F
LITCHFIELD     SUNNY     70  51  51 SW6       30.25R
$$


CITY           SKY/WX    TMP DP  RH WIND       PRES   REMARKS
LINCOLN        SUNNY     76  42  29 NW3       30.19S
MACOMB         SUNNY     74  39  28 W8        30.24S
MATTOON        SUNNY     73  44  35 W9        30.21S
MT CARMEL AP   SUNNY     72  45  37 W14G21    30.24S
OLNEY-NOBLE AP SUNNY     68  52  56 W9        30.25S
PARIS          SUNNY     74  43  32 W5        30.21S
PEORIA         SUNNY     76  40  27 NW5       30.21R
PONTIAC        SUNNY     73  42  31 NE6       30.21S
RANTOUL        SUNNY     74  44  33 CALM      30.20S
ROBINSON       SUNNY     68  49  49 W7        30.24S
SPRINGFIELD    SUNNY     76  40  27 CALM      30.23R
TAYLORVILLE    SUNNY     70  46  43 SW5       30.23S
$$

...REGIONAL REPORTS...


CITY           SKY/WX    TMP DP  RH WIND       PRES   REMARKS
CHICAGO O`HARE MOSUNNY   62  30  29 E9        30.23R
KANKAKEE       SUNNY     71  42  35 CALM      30.21R
MOLINE         SUNNY     75  41  29 W6        30.20S
MOUNT VERNON   SUNNY     70  54  56 SW8       30.27R
PITTSFIELD     MOSUNNY   72  46  39 W5        30.25S
QUINCY         PTSUNNY   72  46  39 SW6       30.23S
ROCKFORD       MOSUNNY   69  39  33 SE5       30.24S
$$


CITY           SKY/WX    TMP DP  RH WIND       PRES   REMARKS
BURLINGTON     SUNNY     73  41  31 VRB3      30.22R
CEDAR RAPIDS   SUNNY     72  37  28 N7        30.21R
DES MOINES     CLOUDY    74  41  30 S6        30.23R
KIRKSVILLE     CLOUDY    69  52  54 W5        30.25S
OTTUMWA        SUNNY     72  41  32 W7        30.23R
ST LOUIS       PTSUNNY   73  50  44 W5        30.25F
$$


CITY           SKY/WX    TMP DP  RH WIND       PRES   REMARKS
TERRE HAUTE    SUNNY     69  50  50 SW8       30.22S
EVANSVILLE     SUNNY     69  50  50 SW8       30.27F
INDIANAPOLIS   MOSUNNY   69  48  47 W9        30.20R
LAFAYETTE      SUNNY     68  50  52 W6        30.20S
MADISON        MOSUNNY   64  34  32 SE3       30.23R
MILWAUKEE      SUNNY     54  30  40 E7        30.27R
$$





USA.gov is the U.S. government's official web portal to all federal, state and local government web resources and services.